CST324X ORBI-LTAI

Flight info

Callsign CST324X
Flight time 1h 55m
Altitude 40000
Route TAGRU L718 KABAN UL718 ULSAB UG8 TAMER UW73 DYB UW716 GAZ UT470 ADKAR DCT MANAZ/N0482F410 UW74 MUT/N0480F400 UR55 ADBEL
Aircraft B77L/H-SDE1E2E3FGHIJ2J3J4J5M1RWXY/LB1D1

Departure

Time 2026-04-22 14:32
Airport Baghdad International Airport / New Al Muthana Air Base (ORBI)

Arrival

Time 2026-04-22 16:28
Airport Antalya International Airport (LTAI)
Time Latitude Longitude Altitude Speed Heading
2026-04-22 14:18 33.26116 44.24197 144 ft 0 kts 240°
2026-04-22 14:27 33.26115 44.24196 144 ft 0 kts 235°
2026-04-22 14:28 33.26108 44.24193 144 ft 3 kts 201°
2026-04-22 14:28 33.26097 44.24207 144 ft 3 kts 107°
2026-04-22 14:28 33.26113 44.24225 144 ft 5 kts 23°
2026-04-22 14:28 33.26158 44.24241 144 ft 8 kts 13°
2026-04-22 14:29 33.26209 44.24271 144 ft 9 kts 48°
2026-04-22 14:29 33.26203 44.24350 144 ft 12 kts 137°
2026-04-22 14:29 33.26126 44.24408 144 ft 16 kts 150°
2026-04-22 14:29 33.26029 44.24473 144 ft 16 kts 151°
2026-04-22 14:30 33.25923 44.24546 144 ft 18 kts 149°
2026-04-22 14:30 33.25811 44.24622 144 ft 19 kts 150°
2026-04-22 14:30 33.25671 44.24719 144 ft 25 kts 150°
2026-04-22 14:30 33.25518 44.24824 144 ft 26 kts 150°
2026-04-22 14:31 33.25367 44.24927 144 ft 19 kts 150°
2026-04-22 14:31 33.25253 44.25005 144 ft 19 kts 150°
2026-04-22 14:31 33.25211 44.25130 144 ft 19 kts 63°
2026-04-22 14:31 33.25303 44.25227 143 ft 19 kts 347°
2026-04-22 14:32 33.25433 44.25140 142 ft 34 kts 330°
2026-04-22 14:32 33.25887 44.24828 146 ft 117 kts 330°
2026-04-22 14:32 33.26792 44.24214 277 ft 169 kts 328°
2026-04-22 14:32 33.27851 44.23668 1176 ft 167 kts 345°
2026-04-22 14:33 33.29013 44.23461 2053 ft 171 kts 356°
2026-04-22 14:33 33.30275 44.23358 2606 ft 195 kts 354°
2026-04-22 14:33 33.31727 44.23207 2989 ft 226 kts 353°
2026-04-22 14:33 33.33420 44.23007 3406 ft 256 kts 354°
2026-04-22 14:34 33.35203 44.22811 4510 ft 259 kts 354°
2026-04-22 14:34 33.37002 44.22628 5639 ft 262 kts 354°
2026-04-22 14:34 33.38820 44.22457 6758 ft 263 kts 355°
2026-04-22 14:34 33.40680 44.22291 7643 ft 274 kts 354°
2026-04-22 14:35 33.42605 44.22124 8595 ft 280 kts 354°
2026-04-22 14:35 33.44566 44.21960 9578 ft 286 kts 354°
2026-04-22 14:35 33.46575 44.21796 10451 ft 295 kts 354°
2026-04-22 14:35 33.48710 44.21623 10865 ft 323 kts 354°
2026-04-22 14:36 33.51068 44.21432 11116 ft 356 kts 354°
2026-04-22 14:36 33.53628 44.21230 11687 ft 377 kts 354°
2026-04-22 14:36 33.56249 44.21029 12680 ft 385 kts 354°
2026-04-22 14:36 33.58946 44.20825 13841 ft 391 kts 354°
2026-04-22 14:37 33.61681 44.20618 14892 ft 396 kts 354°
2026-04-22 14:37 33.64456 44.20408 15944 ft 401 kts 354°
2026-04-22 14:37 33.67263 44.20194 16945 ft 407 kts 353°
2026-04-22 14:37 33.70115 44.19976 17920 ft 414 kts 353°
2026-04-22 14:38 33.73008 44.19754 18805 ft 420 kts 353°
2026-04-22 14:38 33.75932 44.19529 19678 ft 424 kts 353°
2026-04-22 14:38 33.78892 44.19302 20561 ft 428 kts 353°
2026-04-22 14:38 33.81880 44.19073 21412 ft 433 kts 353°
2026-04-22 14:39 33.84908 44.18840 22259 ft 438 kts 353°
2026-04-22 14:39 33.87968 44.18604 23081 ft 443 kts 353°
2026-04-22 14:39 33.91070 44.18365 23844 ft 448 kts 352°
2026-04-22 14:40 33.96287 44.17963 24993 ft 455 kts 352°
2026-04-22 14:40 33.99465 44.17718 25704 ft 459 kts 352°
2026-04-22 14:40 34.03714 44.17390 26587 ft 464 kts 352°
2026-04-22 14:40 34.05899 44.17221 27024 ft 467 kts 352°
2026-04-22 14:41 34.10232 44.16886 27870 ft 473 kts 352°
2026-04-22 14:41 34.12465 44.16714 28289 ft 476 kts 352°
2026-04-22 14:41 34.15738 44.16460 28879 ft 480 kts 351°
2026-04-22 14:41 34.19088 44.16201 29462 ft 484 kts 352°
2026-04-22 14:42 34.22461 44.15939 30012 ft 487 kts 351°
2026-04-22 14:42 34.25849 44.15678 30541 ft 487 kts 351°
2026-04-22 14:42 34.29235 44.15417 31159 ft 486 kts 351°
2026-04-22 14:42 34.32611 44.15156 31779 ft 484 kts 351°
2026-04-22 14:43 34.35979 44.14895 32382 ft 483 kts 351°
2026-04-22 14:43 34.39293 44.14636 32972 ft 483 kts 350°
2026-04-22 14:43 34.42646 44.14375 33565 ft 481 kts 350°
2026-04-22 14:43 34.45990 44.14076 34116 ft 478 kts 347°
2026-04-22 14:44 34.49253 44.13417 34537 ft 473 kts 341°
2026-04-22 14:44 34.52423 44.12404 34963 ft 469 kts 336°
2026-04-22 14:44 34.55436 44.11080 35386 ft 464 kts 331°
2026-04-22 14:44 34.58399 44.09531 35806 ft 463 kts 330°
2026-04-22 14:45 34.61351 44.07957 36246 ft 463 kts 330°
2026-04-22 14:45 34.64296 44.06381 36665 ft 463 kts 330°
2026-04-22 14:45 34.67245 44.04811 37079 ft 463 kts 330°
2026-04-22 14:45 34.70195 44.03249 37490 ft 463 kts 330°
2026-04-22 14:46 34.73153 44.01690 37859 ft 464 kts 330°
2026-04-22 14:46 34.76114 44.00133 38243 ft 464 kts 330°
2026-04-22 14:46 34.79082 43.98574 38647 ft 463 kts 330°
2026-04-22 14:46 34.82044 43.97019 38942 ft 463 kts 330°
2026-04-22 14:47 34.85966 43.94956 39320 ft 464 kts 330°
2026-04-22 14:47 34.87977 43.93898 39498 ft 465 kts 330°
2026-04-22 14:47 34.90950 43.92331 39768 ft 465 kts 330°
2026-04-22 14:47 34.93891 43.90779 39892 ft 469 kts 330°
2026-04-22 14:48 34.99916 43.87594 39964 ft 475 kts 330°
2026-04-22 14:48 35.06015 43.84368 39970 ft 478 kts 330°
2026-04-22 14:49 35.12091 43.81156 39967 ft 473 kts 330°
2026-04-22 14:49 35.18107 43.77965 39963 ft 470 kts 330°
2026-04-22 14:50 35.24100 43.74777 39966 ft 469 kts 330°
2026-04-22 14:50 35.30080 43.71593 39962 ft 468 kts 330°
2026-04-22 14:51 35.36065 43.68408 39964 ft 469 kts 330°
2026-04-22 14:51 35.42058 43.65216 39952 ft 470 kts 330°
2026-04-22 14:52 35.48073 43.62006 39962 ft 471 kts 330°
2026-04-22 14:52 35.54091 43.58788 39958 ft 473 kts 330°
2026-04-22 14:53 35.60096 43.55572 39970 ft 474 kts 330°
2026-04-22 14:53 35.66144 43.52328 39956 ft 474 kts 330°
2026-04-22 14:54 35.72197 43.49076 39956 ft 475 kts 330°
2026-04-22 14:54 35.78252 43.45818 39955 ft 475 kts 330°
2026-04-22 14:55 35.84309 43.42552 39962 ft 475 kts 330°
2026-04-22 14:55 35.90374 43.39276 39959 ft 475 kts 330°
2026-04-22 14:56 35.96433 43.35999 39950 ft 475 kts 330°
2026-04-22 14:56 36.02451 43.32737 39946 ft 475 kts 330°
2026-04-22 14:57 36.08494 43.29457 39958 ft 474 kts 330°
2026-04-22 14:57 36.14525 43.26163 39960 ft 474 kts 330°
2026-04-22 14:58 36.20520 43.22801 39945 ft 467 kts 324°
2026-04-22 14:58 36.23032 43.20373 39959 ft 451 kts 306°
2026-04-22 14:58 36.24768 43.17192 39980 ft 443 kts 293°
2026-04-22 14:59 36.26488 43.09979 39966 ft 435 kts 275°
2026-04-22 14:59 36.27177 43.02560 39960 ft 437 kts 274°
2026-04-22 15:00 36.27831 42.95053 39962 ft 439 kts 274°
2026-04-22 15:00 36.28525 42.87519 39960 ft 441 kts 275°
2026-04-22 15:01 36.29247 42.79951 39957 ft 442 kts 275°
2026-04-22 15:01 36.29975 42.72378 39950 ft 443 kts 275°
2026-04-22 15:02 36.30698 42.64803 39946 ft 442 kts 275°
2026-04-22 15:02 36.31417 42.57223 39958 ft 442 kts 275°
2026-04-22 15:03 36.32129 42.49654 39957 ft 442 kts 275°
2026-04-22 15:03 36.32836 42.42078 39957 ft 441 kts 275°
2026-04-22 15:04 36.33531 42.34583 39960 ft 440 kts 275°
2026-04-22 15:04 36.34225 42.27050 39957 ft 439 kts 275°
2026-04-22 15:05 36.34913 42.19523 39975 ft 438 kts 275°
2026-04-22 15:05 36.35595 42.12011 39964 ft 438 kts 275°
2026-04-22 15:06 36.36272 42.04501 39963 ft 438 kts 274°
2026-04-22 15:06 36.36943 41.96995 39971 ft 438 kts 274°
2026-04-22 15:07 36.37611 41.89480 39970 ft 438 kts 274°
2026-04-22 15:07 36.38274 41.81960 39969 ft 439 kts 274°
2026-04-22 15:08 36.38934 41.74434 39981 ft 439 kts 274°
2026-04-22 15:08 36.39591 41.66882 39969 ft 440 kts 274°
2026-04-22 15:09 36.40237 41.59383 39958 ft 439 kts 274°
2026-04-22 15:09 36.40884 41.51837 39973 ft 440 kts 274°
2026-04-22 15:10 36.41526 41.44277 39966 ft 440 kts 274°
2026-04-22 15:10 36.42164 41.36720 39969 ft 440 kts 274°
2026-04-22 15:11 36.42796 41.29166 39972 ft 440 kts 274°
2026-04-22 15:11 36.43424 41.21612 39965 ft 440 kts 274°
2026-04-22 15:12 36.44048 41.14046 39964 ft 440 kts 274°
2026-04-22 15:12 36.44663 41.06524 39959 ft 440 kts 274°
2026-04-22 15:13 36.45276 40.98966 39965 ft 440 kts 274°
2026-04-22 15:13 36.45885 40.91402 39967 ft 440 kts 274°
2026-04-22 15:14 36.46489 40.83840 39963 ft 440 kts 274°
2026-04-22 15:14 36.47088 40.76287 39964 ft 439 kts 274°
2026-04-22 15:15 36.47681 40.68732 39968 ft 439 kts 274°
2026-04-22 15:15 36.48270 40.61178 39967 ft 439 kts 274°
2026-04-22 15:16 36.48851 40.53663 39953 ft 439 kts 274°
2026-04-22 15:16 36.49429 40.46116 39972 ft 439 kts 274°
2026-04-22 15:17 36.50004 40.38557 39969 ft 439 kts 274°
2026-04-22 15:17 36.50574 40.30992 39966 ft 439 kts 274°
2026-04-22 15:18 36.51139 40.23428 39979 ft 439 kts 274°
2026-04-22 15:18 36.51696 40.15918 39972 ft 439 kts 274°
2026-04-22 15:19 36.52252 40.08342 39963 ft 440 kts 274°
2026-04-22 15:19 36.52803 40.00773 39980 ft 440 kts 274°
2026-04-22 15:20 36.53350 39.93195 39963 ft 440 kts 273°
2026-04-22 15:20 36.53891 39.85628 39971 ft 439 kts 273°
2026-04-22 15:21 36.54428 39.78057 39976 ft 439 kts 273°
2026-04-22 15:21 36.54961 39.70474 39971 ft 440 kts 273°
2026-04-22 15:22 36.55488 39.62893 39972 ft 440 kts 273°
2026-04-22 15:22 36.56008 39.55348 39981 ft 440 kts 273°
2026-04-22 15:23 36.56526 39.47765 39976 ft 440 kts 273°
2026-04-22 15:23 36.57040 39.40172 39981 ft 440 kts 273°
2026-04-22 15:24 36.57549 39.32583 39979 ft 440 kts 273°
2026-04-22 15:24 36.58053 39.24994 39979 ft 440 kts 273°
2026-04-22 15:25 36.58552 39.17398 39984 ft 441 kts 273°
2026-04-22 15:25 36.59047 39.09794 39984 ft 441 kts 273°
2026-04-22 15:26 36.59537 39.02189 39978 ft 441 kts 273°
2026-04-22 15:26 36.60020 38.94629 39985 ft 441 kts 273°
2026-04-22 15:27 36.60501 38.87016 39982 ft 441 kts 273°
2026-04-22 15:27 36.60976 38.79413 39964 ft 440 kts 273°
2026-04-22 15:28 36.61367 38.73100 39981 ft 440 kts 273°
2026-04-22 15:28 36.61834 38.65497 39988 ft 440 kts 273°
2026-04-22 15:29 36.62294 38.57917 39977 ft 440 kts 273°
2026-04-22 15:30 36.62977 38.46522 39983 ft 439 kts 273°
2026-04-22 15:30 36.63425 38.38931 39985 ft 440 kts 273°
2026-04-22 15:31 36.63869 38.31339 39982 ft 440 kts 273°
2026-04-22 15:31 36.64308 38.23745 39983 ft 440 kts 273°
2026-04-22 15:32 36.64743 38.16143 39980 ft 439 kts 273°
2026-04-22 15:32 36.65173 38.08544 39978 ft 440 kts 273°
2026-04-22 15:33 36.65595 38.00995 39974 ft 440 kts 273°
2026-04-22 15:33 36.66015 37.93391 39989 ft 440 kts 273°
2026-04-22 15:34 36.66430 37.85785 39976 ft 440 kts 273°
2026-04-22 15:34 36.66841 37.78183 39977 ft 440 kts 273°
2026-04-22 15:35 36.67246 37.70576 40006 ft 440 kts 273°
2026-04-22 15:35 36.67647 37.62977 39985 ft 440 kts 273°
2026-04-22 15:36 36.68042 37.55381 39983 ft 439 kts 273°
2026-04-22 15:36 36.68430 37.47837 39992 ft 439 kts 273°
2026-04-22 15:37 36.68816 37.40232 39987 ft 439 kts 273°
2026-04-22 15:37 36.69197 37.32643 39991 ft 439 kts 272°
2026-04-22 15:38 36.69573 37.25039 39987 ft 439 kts 272°
2026-04-22 15:38 36.70125 37.13709 39975 ft 438 kts 272°
2026-04-22 15:39 36.70488 37.06132 39980 ft 438 kts 272°
2026-04-22 15:39 36.70846 36.98561 39984 ft 438 kts 272°
2026-04-22 15:40 36.71200 36.90981 39971 ft 437 kts 272°
2026-04-22 15:40 36.71547 36.83415 39970 ft 437 kts 272°
2026-04-22 15:41 36.71891 36.75848 39971 ft 437 kts 272°
2026-04-22 15:41 36.72229 36.68282 39965 ft 437 kts 272°
2026-04-22 15:42 36.72561 36.60763 39971 ft 437 kts 272°
2026-04-22 15:42 36.72918 36.53177 39994 ft 437 kts 273°
2026-04-22 15:43 36.73349 36.45610 39984 ft 437 kts 273°
2026-04-22 15:43 36.73783 36.38054 39991 ft 437 kts 273°
2026-04-22 15:44 36.74203 36.30490 39989 ft 437 kts 273°
2026-04-22 15:44 36.74609 36.22976 40010 ft 437 kts 273°
2026-04-22 15:45 36.75012 36.15396 39993 ft 438 kts 273°
2026-04-22 15:45 36.75412 36.07807 39993 ft 438 kts 273°
2026-04-22 15:46 36.75807 36.00208 39989 ft 439 kts 273°
2026-04-22 15:46 36.76195 35.92652 39981 ft 440 kts 273°
2026-04-22 15:47 36.76583 35.85013 39975 ft 441 kts 273°
2026-04-22 15:47 36.76966 35.77371 39975 ft 441 kts 273°
2026-04-22 15:48 36.77344 35.69719 39978 ft 442 kts 272°
2026-04-22 15:48 36.77718 35.62064 39960 ft 442 kts 272°
2026-04-22 15:49 36.78084 35.54452 39968 ft 442 kts 272°
2026-04-22 15:49 36.78449 35.46784 39976 ft 442 kts 272°
2026-04-22 15:50 36.78808 35.39120 39966 ft 442 kts 272°
2026-04-22 15:50 36.79162 35.31468 39969 ft 442 kts 272°
2026-04-22 15:51 36.79511 35.23817 39983 ft 441 kts 272°
2026-04-22 15:51 36.79852 35.16218 39975 ft 441 kts 272°
2026-04-22 15:52 36.80191 35.08562 39979 ft 441 kts 272°
2026-04-22 15:52 36.80525 35.00923 39983 ft 441 kts 272°
2026-04-22 15:53 36.80853 34.93281 39982 ft 441 kts 272°
2026-04-22 15:53 36.81177 34.85631 39988 ft 441 kts 272°
2026-04-22 15:54 36.81496 34.77996 39983 ft 441 kts 272°
2026-04-22 15:54 36.81809 34.70388 39994 ft 441 kts 272°
2026-04-22 15:55 36.82118 34.62741 39986 ft 441 kts 272°
2026-04-22 15:55 36.82422 34.55097 39980 ft 441 kts 272°
2026-04-22 15:56 36.82721 34.47452 40012 ft 441 kts 272°
2026-04-22 15:56 36.83016 34.39808 39998 ft 440 kts 272°
2026-04-22 15:57 36.83306 34.32168 39994 ft 439 kts 272°
2026-04-22 15:57 36.83587 34.24610 39983 ft 438 kts 272°
2026-04-22 15:58 36.83864 34.17004 40007 ft 439 kts 272°
2026-04-22 15:58 36.84139 34.09379 39998 ft 439 kts 272°
2026-04-22 15:59 36.84407 34.01763 39994 ft 439 kts 272°
2026-04-22 15:59 36.84671 33.94145 39993 ft 439 kts 272°
2026-04-22 16:00 36.84931 33.86517 39985 ft 440 kts 272°
2026-04-22 16:00 36.85186 33.78885 39971 ft 440 kts 272°
2026-04-22 16:01 36.85436 33.71249 39973 ft 440 kts 272°
2026-04-22 16:01 36.85679 33.63665 39963 ft 440 kts 272°
2026-04-22 16:02 36.85920 33.56022 39954 ft 440 kts 272°
2026-04-22 16:02 36.86156 33.48367 39956 ft 440 kts 272°
2026-04-22 16:03 36.86387 33.40715 39953 ft 440 kts 272°
2026-04-22 16:03 36.86613 33.33073 39950 ft 440 kts 272°
2026-04-22 16:04 36.86833 33.25428 39947 ft 441 kts 272°
2026-04-22 16:04 36.87050 33.17754 39940 ft 441 kts 272°
2026-04-22 16:05 36.87260 33.10151 39957 ft 441 kts 272°
2026-04-22 16:05 36.87467 33.02500 39937 ft 439 kts 271°
2026-04-22 16:06 36.87667 32.94890 39919 ft 438 kts 272°
2026-04-22 16:06 36.87767 32.91029 39209 ft 449 kts 272°
2026-04-22 16:06 36.87868 32.87150 38698 ft 443 kts 272°
2026-04-22 16:07 36.87964 32.83338 38023 ft 436 kts 272°
2026-04-22 16:07 36.88057 32.79544 36836 ft 440 kts 272°
2026-04-22 16:07 36.88152 32.75702 35770 ft 441 kts 272°
2026-04-22 16:07 36.88242 32.71930 34822 ft 441 kts 272°
2026-04-22 16:08 36.88335 32.68041 33732 ft 443 kts 272°
2026-04-22 16:08 36.88425 32.64241 32538 ft 444 kts 272°
2026-04-22 16:08 36.88515 32.60379 31386 ft 445 kts 272°
2026-04-22 16:08 36.88604 32.56526 30518 ft 441 kts 272°
2026-04-22 16:09 36.88692 32.52705 29631 ft 437 kts 272°
2026-04-22 16:09 36.88775 32.48931 28748 ft 432 kts 272°
2026-04-22 16:09 36.88862 32.45201 27938 ft 427 kts 272°
2026-04-22 16:09 36.88959 32.41512 27165 ft 422 kts 272°
2026-04-22 16:10 36.89059 32.37864 26412 ft 418 kts 272°
2026-04-22 16:10 36.89159 32.34250 25677 ft 414 kts 272°
2026-04-22 16:10 36.89223 32.31873 25202 ft 412 kts 272°
2026-04-22 16:10 36.89349 32.27114 24253 ft 408 kts 272°
2026-04-22 16:11 36.89440 32.23572 23529 ft 405 kts 272°
2026-04-22 16:11 36.89529 32.20061 22713 ft 403 kts 272°
2026-04-22 16:11 36.89616 32.16578 21977 ft 399 kts 272°
2026-04-22 16:11 36.89701 32.13165 21262 ft 396 kts 272°
2026-04-22 16:12 36.89785 32.09734 20611 ft 392 kts 272°
2026-04-22 16:12 36.89866 32.06347 19949 ft 389 kts 272°
2026-04-22 16:12 36.89948 32.02982 19290 ft 387 kts 272°
2026-04-22 16:12 36.90028 31.99634 18635 ft 384 kts 272°
2026-04-22 16:13 36.90106 31.96304 17936 ft 383 kts 272°
2026-04-22 16:13 36.90173 31.92985 17228 ft 381 kts 272°
2026-04-22 16:13 36.90232 31.89688 16548 ft 378 kts 272°
2026-04-22 16:13 36.90289 31.86452 15907 ft 375 kts 272°
2026-04-22 16:14 36.90348 31.83195 15282 ft 373 kts 272°
2026-04-22 16:14 36.90404 31.79966 14653 ft 371 kts 272°
2026-04-22 16:14 36.90461 31.76748 14029 ft 369 kts 271°
2026-04-22 16:14 36.90370 31.73550 13346 ft 367 kts 265°
2026-04-22 16:15 36.89997 31.70414 12697 ft 364 kts 261°
2026-04-22 16:15 36.89578 31.67306 12062 ft 362 kts 261°
2026-04-22 16:15 36.89172 31.64210 11449 ft 360 kts 261°
2026-04-22 16:15 36.88773 31.61136 10896 ft 357 kts 261°
2026-04-22 16:16 36.88513 31.59134 10820 ft 347 kts 261°
2026-04-22 16:16 36.88135 31.56211 10667 ft 335 kts 261°
2026-04-22 16:16 36.87652 31.52481 10466 ft 321 kts 262°
2026-04-22 16:16 36.87301 31.49779 10312 ft 310 kts 261°
2026-04-22 16:17 36.87070 31.48002 10231 ft 303 kts 261°
2026-04-22 16:17 36.86739 31.45448 10116 ft 293 kts 261°
2026-04-22 16:17 36.86416 31.42978 9956 ft 284 kts 261°
2026-04-22 16:17 36.86102 31.40562 9756 ft 278 kts 261°
2026-04-22 16:18 36.85795 31.38204 9401 ft 277 kts 261°
2026-04-22 16:18 36.85484 31.35823 9007 ft 278 kts 261°
2026-04-22 16:18 36.85173 31.33446 8666 ft 277 kts 261°
2026-04-22 16:18 36.84863 31.31081 8334 ft 275 kts 260°
2026-04-22 16:19 36.84554 31.28729 8018 ft 274 kts 260°
2026-04-22 16:19 36.84246 31.26388 7688 ft 272 kts 260°
2026-04-22 16:19 36.83939 31.24058 7372 ft 271 kts 259°
2026-04-22 16:19 36.83634 31.21744 7049 ft 269 kts 259°
2026-04-22 16:20 36.83329 31.19445 6744 ft 268 kts 259°
2026-04-22 16:20 36.83027 31.17155 6431 ft 266 kts 258°
2026-04-22 16:20 36.82725 31.14884 6110 ft 265 kts 258°
2026-04-22 16:20 36.82425 31.12635 5781 ft 260 kts 259°
2026-04-22 16:21 36.82131 31.10420 5460 ft 256 kts 259°
2026-04-22 16:21 36.81839 31.08233 5189 ft 257 kts 258°
2026-04-22 16:21 36.81549 31.06061 4898 ft 257 kts 259°
2026-04-22 16:21 36.81253 31.03853 4580 ft 258 kts 258°
2026-04-22 16:22 36.80668 30.99459 3978 ft 253 kts 258°
2026-04-22 16:22 36.80380 30.97313 3678 ft 249 kts 258°
2026-04-22 16:22 36.80093 30.95190 3472 ft 246 kts 258°
2026-04-22 16:23 36.79553 30.91169 3224 ft 222 kts 258°
2026-04-22 16:23 36.79304 30.89326 3156 ft 210 kts 258°
2026-04-22 16:23 36.79067 30.87570 3038 ft 201 kts 259°
2026-04-22 16:24 36.78840 30.85894 2816 ft 191 kts 258°
2026-04-22 16:24 36.78416 30.82751 2361 ft 177 kts 256°
2026-04-22 16:24 36.78434 30.81265 2072 ft 171 kts 288°
2026-04-22 16:25 36.79147 30.80173 1915 ft 153 kts 317°
2026-04-22 16:25 36.81121 30.79740 1610 ft 151 kts 19°
2026-04-22 16:25 36.82198 30.79911 1417 ft 160 kts
2026-04-22 16:26 36.83312 30.80041 1186 ft 161 kts 11°
2026-04-22 16:26 36.84413 30.80218 953 ft 157 kts
2026-04-22 16:26 36.85481 30.80374 727 ft 153 kts
2026-04-22 16:26 36.86533 30.80513 510 ft 148 kts
2026-04-22 16:27 36.87559 30.80643 358 ft 151 kts
2026-04-22 16:27 36.88593 30.80788 202 ft 146 kts
2026-04-22 16:27 36.89491 30.80916 200 ft 108 kts
2026-04-22 16:27 36.90086 30.81000 202 ft 64 kts
2026-04-22 16:28 36.90469 30.81027 204 ft 43 kts 353°
2026-04-22 16:28 36.90622 30.80960 206 ft 14 kts 334°
2026-04-22 16:28 36.90672 30.80929 208 ft 7 kts 334°
2026-04-22 16:28 36.90709 30.80884 203 ft 8 kts 276°
2026-04-22 16:29 36.90663 30.80842 206 ft 9 kts 189°
2026-04-22 16:29 36.90595 30.80831 201 ft 10 kts 186°
2026-04-22 16:29 36.90510 30.80819 209 ft 19 kts 186°
2026-04-22 16:29 36.90318 30.80796 208 ft 30 kts 185°
2026-04-22 16:30 36.90181 30.80780 209 ft 30 kts 186°
2026-04-22 16:30 36.89911 30.80742 207 ft 25 kts 186°
2026-04-22 16:30 36.89735 30.80721 196 ft 25 kts 186°
2026-04-22 16:30 36.89557 30.80695 203 ft 28 kts 186°
2026-04-22 16:31 36.89346 30.80664 203 ft 30 kts 187°
2026-04-22 16:31 36.89137 30.80634 203 ft 30 kts 186°
2026-04-22 16:31 36.88933 30.80607 203 ft 24 kts 186°
2026-04-22 16:31 36.88799 30.80566 211 ft 13 kts 234°
2026-04-22 16:32 36.88802 30.80442 208 ft 20 kts 277°
2026-04-22 16:32 36.88725 30.80335 210 ft 19 kts 182°
2026-04-22 16:32 36.88637 30.80359 203 ft 8 kts 114°
2026-04-22 16:32 36.88634 30.80398 200 ft 3 kts 95°
2026-04-22 16:33 36.88632 30.80425 197 ft 0 kts 96°
2026-04-22 16:33 36.88631 30.80429 197 ft 0 kts 96°